TimeCST,TemperatureF,Dew PointF,Humidity,Sea Level PressureIn,VisibilityMPH,Wind Direction,Wind SpeedMPH,Gust SpeedMPH,PrecipitationIn,Events,Conditions,WindDirDegrees,DateUTC
12:49 AM,60.8,35.6,39,30.12,8.0,West,9.2,-,N/A,,Scattered Clouds,270,2013-02-21 06:49:00
1:45 AM,57.2,33.8,41,30.11,8.0,North,6.9,-,N/A,,Scattered Clouds,360,2013-02-21 07:45:00
2:47 AM,53.6,33.8,47,29.70,8.0,Calm,Calm,-,N/A,,Scattered Clouds,0,2013-02-21 08:47:00
4:43 AM,57.2,30.2,36,30.14,8.0,NE,6.9,-,N/A,,Scattered Clouds,40,2013-02-21 10:43:00
5:50 AM,50.0,33.8,54,29.77,8.0,Calm,Calm,-,N/A,,Scattered Clouds,0,2013-02-21 11:50:00
7:50 AM,50.0,33.8,54,30.14,7.0,Calm,Calm,-,N/A,,Partly Cloudy,0,2013-02-21 13:50:00
8:50 AM,64.4,35.6,34,29.85,6.0,Calm,Calm,-,N/A,,Clear,0,2013-02-21 14:50:00
9:49 AM,69.8,37.4,31,30.19,8.0,Calm,Calm,-,N/A,,Clear,0,2013-02-21 15:49:00
10:46 AM,73.4,35.6,25,30.19,10.0,SW,11.5,-,N/A,,Clear,220,2013-02-21 16:46:00
11:48 AM,75.2,35.6,24,29.79,10.0,West,13.8,-,N/A,,Scattered Clouds,280,2013-02-21 17:48:00
12:50 PM,80.6,33.8,18,30.14,10.0,WSW,11.5,25.3,N/A,,Scattered Clouds,250,2013-02-21 18:50:00
1:50 PM,82.4,30.2,15,30.10,10.0,SW,15.0,28.8,N/A,,Mostly Cloudy,230,2013-02-21 19:50:00
2:49 PM,82.4,32.0,16,29.67,10.0,SW,15.0,29.9,N/A,,Mostly Cloudy,230,2013-02-21 20:49:00
3:44 PM,82.4,32.0,16,30.06,10.0,SW,13.8,25.3,N/A,,Mostly Cloudy,220,2013-02-21 21:44:00
5:46 PM,78.8,32.0,18,29.70,10.0,WSW,17.3,-,N/A,,Mostly Cloudy,240,2013-02-21 23:46:00
6:44 PM,73.4,32.0,22,30.06,10.0,WSW,12.7,-,N/A,,Mostly Cloudy,240,2013-02-22 00:44:00
7:41 PM,69.8,32.0,25,30.09,8.0,SSW,5.8,-,N/A,,Mostly Cloudy,210,2013-02-22 01:41:00
8:51 PM,66.2,33.8,30,29.74,8.0,WSW,8.1,-,N/A,,Scattered Clouds,240,2013-02-22 02:51:00
9:43 PM,64.4,33.8,32,30.14,8.0,WSW,6.9,-,N/A,,Scattered Clouds,250,2013-02-22 03:43:00
10:42 PM,60.8,33.8,36,30.15,8.0,Calm,Calm,-,N/A,,Scattered Clouds,0,2013-02-22 04:42:00
11:43 PM,60.8,35.6,39,29.80,8.0,NW,5.8,-,N/A,,Clear,320,2013-02-22 05:43:00